Other Public Products
Issued by NWS Charleston, SC

Current Version | Previous Version | Graphics & Text | Print | Product List | Glossary On
Versions: 1 2 3 4 5 6 7 8 9 10 11 12 13 14 15 16 17 18 19 20 21 22 23 24 25 26 27 28 29 30 31 32 33 34 35 36 37 38 39 40 41 42 43 44 45 46 47 48 49 50
931
FPUS82 KCHS 222127
OPUCHS

TEST...KCHS/KSAV Gateway Observations...TEST
National Weather Service Charleston SC
400 PM EST SUN JAN 22 2017

NOTE: "fair" indicates few or no clouds below 12,000 feet with no
significant weather and/or obstructions to visibility.

SCZ050-WAZ558-NCZ071-TXZ119-213-PAZ071-DCZ001-FLZ074-172-MI076-
NYZ176-178-MAZ016-IL014-TNZ027-NJZ106-GAZ044-MD014-222200-
...Gateway Observations for Charleston International...

CITY           SKY/WX    TMP DP  RH WIND       PRES   REMARKS
Chas Airport   HVY RAIN  62  60  93 CALM      29.50F FOG
Seattle        CLOUDY    45  39  79 SE7       29.55R
Charlotte      CLOUDY    63  55  75 NE7       29.51F
Dallas DFW     MOSUNNY   66  37  34 NW32G45   29.67R
Dallas Love    MOSUNNY   65  38  36 N31G43    29.68R
Philladelphia  LGT RAIN  49  47  93 NE9       29.68R FOG
Wash National  LGT RAIN  50  50 100 NE6       29.63F FOG
Baltimore      LGT RAIN  51  51 100 NE5       29.64F FOG
Miami          MOSUNNY   86  67  52 S22G29    29.71S
Detroit        FOG       49  48  97 NE6       29.61R VSB 1/16
Newark         LGT RAIN  49  44  83 NE10      29.71R
Laguardia      LGT RAIN  45  41  86 NE10      29.72R FOG
J F K          LGT RAIN  49  48  97 NE8       29.72R FOG
Boston Logan   LGT RAIN  41  41 100 NE17      29.86R FOG
Ft. Lauderdale MOSUNNY   85  65  51 SW22G39   29.68F
Chicago O`Hare CLOUDY    44  39  82 N9        29.61R
Chicago Midway CLOUDY    46  38  73 N7        29.61R
Houston Bush   MOSUNNY   67  46  47 NW24G41   29.65R
Houston Hobby  MOSUNNY   69  44  40 NW30G48   29.65R
Nashville      CLOUDY    64  51  62 E9        29.30R
Atlanta        CLOUDY    61  60  97 E21G33    29.19F

$$

GAZ044-118-TXZ119-213-NCZ071-DCZ001-MDZ014-506-PAZ021-071-NJZ106-
NYZ176-178-MAZ106-OHZ011-021-055-MIZ076-KYZ091-ILZ014-INZ047-
MNZ060-222200-
...Gateway Observations for Savannah International...

CITY           SKY/WX    TMP DP  RH WIND       PRES   REMARKS
Savannah Arpt  LGT RAIN  63  60  90 SE12      29.46F
Atlanta        CLOUDY    61  60  97 E21G33    29.19F
Charlotte      CLOUDY    63  55  75 NE7       29.51F
Dallas DFW     MOSUNNY   66  37  34 NW32G45   29.67R
Houston Bush   MOSUNNY   67  46  47 NW24G41   29.65R
Wash National  LGT RAIN  50  50 100 NE6       29.63F FOG
Wash Dulles    LGT RAIN  49  46  90 NE8       29.62F FOG
Baltimore      LGT RAIN  51  51 100 NE5       29.64F FOG
Philadelphia   LGT RAIN  49  47  93 NE9       29.68R FOG
Newark         LGT RAIN  49  44  83 NE10      29.71R
Laguardia      LGT RAIN  45  41  86 NE10      29.72R FOG
J F K          LGT RAIN  49  48  97 NE8       29.72R FOG
Boston         LGT RAIN  41  41 100 NE17      29.86R FOG
Pittsburg      CLOUDY    61  48  62 E10       29.53F
Akron          CLOUDY    59  48  67 NE8       29.55S
Cleveland      CLOUDY    56  48  74 NE10      29.58S
Cincinnati     CLOUDY    61  51  70 NE10      29.44S
Columbus         N/A     60  49  67 NE10      29.47F
Detroit        FOG       49  48  97 NE6       29.61R VSB 1/16
Chicago O`Hare CLOUDY    44  39  82 N9        29.61R
Minneapolis    CLOUDY    40  35  83 NW8       29.72R WCI  34
Indianapolis   CLOUDY    60  50  69 NE8       29.47S

$$




USA.gov is the U.S. government's official web portal to all federal, state and local government web resources and services.